User: anonymous   Login
Location: Unspecified
(0.0000°N, 0.0000°E)
Time: 17:54:36
(UTC+02:00)
Language:

Cosmos 1933 - Orbit

View from above orbital plane
View from above orbital plane
View from above satellite
View from above satellite

Ground track
Ground track

The orbit data is extracted from the following two-line orbital elements,

1 18958U 88020A   16119.19362524  .00000407  00000-0  28291-4 0  9996
2 18958  82.5280 144.1796 0010071 250.9885 109.0250 15.02865659529196
Epoch (UTC): 28 April 2016 04:38:49
Eccentricity: 0.0010071
inclination: 82.5280°
perigee height: 551 km
apogee height: 565 km
right ascension of ascending node: 144.1796°
argument of perigee: 250.9885°
revolutions per day: 15.02865659
mean anomaly at epoch: 109.0250°
orbit number at epoch: 52919

The dashed part of the orbit path shows where the satellite is in the earth's shadow,  

DLR